Weather History for KCLL - March, 2014

Change the Weather History Date:

Friday, March 14, 2014

  Actual Average Record
Temperature  
Mean Temperature 59 °F 61 °F  
Max Temperature 71 °F 71 °F 90 °F (1936)
Min Temperature 47 °F 51 °F 27 °F (1993)
Degree Days  
Heating Degree Days 6 6  
Month to date heating degree days 200 99  
Since 1 July heating degree days 1924 1486  
Cooling Degree Days 0 2  
Month to date cooling degree days 7 19  
Year to date cooling degree days 28 47  
Growing Degree Days 8 (Base 50)    
Moisture  
Dew Point 51 °F    
Average Humidity 75    
Maximum Humidity 93    
Minimum Humidity 57    
Precipitation  
Precipitation 0.00 in 0.11 in 1.45 in (2007)
Month to date precipitation 1.36 1.42  
Year to date precipitation 3.54 7.51  
Sea Level Pressure  
Sea Level Pressure 30.05 in    
Wind  
Wind Speed 9 mph (SSE)    
Max Wind Speed 22 mph    
Max Gust Speed 27 mph    
Visibility 10 miles    
Events      
T = Trace of Precipitation, MM = Missing Value Source: NWS Daily Summary

Daily Weather History Graph

Daily Weather History Graph

Search for Another Location

Airport or City:

Trip Planner

Search our weather history database for the weather conditions in past years. The results will help you decide how hot, cold, wet, or windy it might be!

Date:

Astronomy

Mar. 14, 2014 Rise Set
Actual Time 7:36 AM CDT 7:33 PM CDT
Civil Twilight 7:12 AM CDT 7:57 PM CDT
Nautical Twilight 6:44 AM CDT 8:25 PM CDT
Astronomical Twilight 6:16 AM CDT 8:53 PM CDT
Moon 6:00 PM CDT (3/14) 6:11 AM CDT (3/14)
Length of Visible Light 12h 44m
Length of Day
11h 56m
Waxing Gibbous, 96% of the Moon is Illuminated
Mar 14
Waxing Gibbous
Mar 16
Full
Mar 23
Last Quarter
Mar 30
New
Apr 7
First Quarter

Hourly Weather History & Observations

Time (CDT) Temp. Dew Point Humidity Pressure Visibility Wind Dir Wind Speed Gust Speed Precip Events Conditions
12:53 AM 51.1 °F 42.1 °F 71% 30.13 in 10.0 mi South 11.5 mph - N/A   Clear
1:53 AM 51.1 °F 43.0 °F 74% 30.12 in 10.0 mi South 9.2 mph - N/A   Clear
2:53 AM 48.9 °F 43.0 °F 80% 30.10 in 10.0 mi SSE 6.9 mph - N/A   Clear
3:53 AM 48.9 °F 43.0 °F 80% 30.09 in 10.0 mi SSE 5.8 mph - N/A   Clear
4:53 AM 48.9 °F 44.1 °F 83% 30.08 in 10.0 mi ESE 3.5 mph - N/A   Clear
5:53 AM 46.9 °F 43.0 °F 86% 30.08 in 10.0 mi SE 5.8 mph - N/A   Clear
6:53 AM 46.9 °F 44.1 °F 90% 30.09 in 10.0 mi ESE 3.5 mph - N/A   Partly Cloudy
7:12 AM 48.0 °F 44.1 °F 86% 30.09 in 10.0 mi ESE 3.5 mph - N/A   Mostly Cloudy
7:32 AM 48.9 °F 46.0 °F 90% 30.10 in 10.0 mi ESE 4.6 mph - N/A   Overcast
7:53 AM 48.9 °F 46.0 °F 90% 30.09 in 10.0 mi SE 4.6 mph - N/A   Overcast
8:53 AM 53.1 °F 48.9 °F 86% 30.09 in 8.0 mi SE 9.2 mph - N/A   Overcast
9:53 AM 60.1 °F 51.1 °F 72% 30.10 in 10.0 mi South 12.7 mph - N/A   Partly Cloudy
10:53 AM 64.0 °F 53.1 °F 67% 30.10 in 10.0 mi South 10.4 mph 21.9 mph N/A   Clear
11:53 AM 66.9 °F 53.1 °F 61% 30.09 in 10.0 mi South 18.4 mph 24.2 mph N/A   Mostly Cloudy
12:53 PM 69.1 °F 54.0 °F 58% 30.09 in 10.0 mi South 17.3 mph 24.2 mph N/A   Overcast
1:53 PM 70.0 °F 54.0 °F 57% 30.05 in 10.0 mi South 15.0 mph 24.2 mph N/A   Overcast
2:53 PM 70.0 °F 53.1 °F 55% 30.03 in 10.0 mi South 13.8 mph - N/A   Overcast
3:53 PM 70.0 °F 54.0 °F 57% 30.00 in 10.0 mi South 11.5 mph - N/A   Overcast
4:53 PM 70.0 °F 54.0 °F 57% 29.99 in 10.0 mi South 9.2 mph - N/A   Overcast
5:53 PM 70.0 °F 55.0 °F 59% 29.98 in 10.0 mi South 10.4 mph - N/A   Overcast
6:53 PM 68.0 °F 55.9 °F 65% 29.98 in 10.0 mi South 12.7 mph - N/A   Partly Cloudy
7:53 PM 64.9 °F 57.0 °F 75% 29.99 in 10.0 mi SSE 5.8 mph - N/A   Clear
8:35 PM 64.9 °F 57.0 °F 75% 30.00 in 10.0 mi SE 5.8 mph - N/A   Mostly Cloudy
8:50 PM 64.4 °F 57.2 °F 77% 30.00 in 10.0 mi SE 5.8 mph - N/A   Mostly Cloudy
8:53 PM 64.0 °F 57.0 °F 78% 30.00 in 10.0 mi SE 4.6 mph - N/A   Mostly Cloudy
9:53 PM 64.0 °F 57.0 °F 78% 30.01 in 10.0 mi SE 6.9 mph - N/A   Overcast
10:53 PM 64.0 °F 57.9 °F 80% 30.02 in 10.0 mi SE 5.8 mph - N/A   Overcast
11:53 PM 63.0 °F 57.9 °F 84% 30.01 in 10.0 mi SE 6.9 mph - N/A   Overcast